| time (UTC) | temp F | wind direction | speed knots | gust knots | rain 1hr in | rain 24hr in | rain mn in | humidity % | barometer mb |
| 20260504190852 | 50 | 90 | 0.0 | 0.0 | 0.00 | 0.00 | 0.00 | 33 | 1010.5 |
| 20260504184848 | 51 | 270 | 0.0 | 0.0 | 0.00 | 0.00 | 0.00 | 33 | 1010.4 |
| 20260504174834 | 53 | 270 | 0.0 | 2.6 | 0.00 | 0.00 | 0.00 | 34 | 1010.0 |
| 20260504173831 | 52 | 270 | 0.9 | 0.9 | 0.00 | 0.00 | 0.00 | 34 | 1010.1 |
| 20260504171825 | 49 | 90 | 0.0 | 0.9 | 0.00 | 0.00 | 0.00 | 32 | 1010.4 |
| 20260504150755 | 50 | 90 | 0.9 | 3.5 | 0.00 | 0.00 | 0.00 | 27 | 1011.0 |
| 20260504140741 | 58 | 0 | 0.0 | 0.9 | 0.00 | 0.00 | 0.00 | 22 | 1011.0 |
| 20260504110654 | 58 | 135 | 1.7 | 6.1 | 0.00 | 0.00 | 0.00 | 23 | 1011.6 |
| 20260504081614 | 51 | 45 | 0.0 | 0.9 | 0.00 | 0.00 | 0.00 | 39 | 1012.3 |
| 20260504044525 | 47 | 90 | 0.0 | 0.0 | 0.00 | 0.00 | 0.00 | 41 | 1011.9 |
| 20260504042519 | 46 | 90 | 0.9 | 2.6 | 0.00 | 0.00 | 0.00 | 44 | 1012.0 |
| 20260504041518 | 45 | 45 | 0.0 | 1.7 | 0.00 | 0.00 | 0.00 | 43 | 1012.0 |
| 20260504035512 | 45 | 45 | 0.0 | 0.9 | 0.00 | 0.00 | 0.00 | 40 | 1012.2 |
| 20260504022451 | 49 | 90 | 0.9 | 0.9 | 0.00 | 0.00 | 0.00 | 37 | 1012.3 |
| 20260504015444 | 49 | 45 | 0.0 | 0.9 | 0.00 | 0.00 | 0.00 | 37 | 1012.5 |
| 20260504013439 | 49 | 90 | 0.0 | 0.0 | 0.00 | 0.00 | 0.00 | 35 | 1012.7 |
| 20260504012438 | 50 | 45 | 0.0 | 0.0 | 0.00 | 0.00 | 0.00 | 36 | 1012.8 |
| 20260504003425 | 49 | 90 | 0.0 | 0.0 | 0.00 | 0.00 | 0.00 | 36 | 1013.0 |
| 20260504002423 | 51 | 45 | 0.0 | 0.0 | 0.00 | 0.00 | 0.00 | 35 | 1012.8 |
| 20260504001420 | 51 | 45 | 0.0 | 0.0 | 0.00 | 0.00 | 0.00 | 35 | 1013.0 |
| 20260504000419 | 50 | 45 | 0.0 | 0.0 | 0.00 | 0.00 | 0.00 | 35 | 1013.0 |
| 20260503230403 | 51 | 45 | 0.0 | 0.0 | 0.00 | 0.00 | 0.00 | 34 | 1013.3 |
| 20260503224359 | 51 | 0 | 0.0 | 0.0 | 0.00 | 0.00 | 0.00 | 34 | 1013.3 |
| 20260503220349 | 52 | 0 | 0.0 | 0.0 | 0.00 | 0.00 | 0.00 | 33 | 1013.6 |
| 20260503214345 | 51 | 315 | 0.0 | 0.0 | 0.00 | 0.00 | 0.00 | 34 | 1013.5 |
| 20260503213342 | 51 | 0 | 0.0 | 0.0 | 0.00 | 0.00 | 0.00 | 34 | 1013.5 |
| 20260503211339 | 52 | 45 | 0.0 | 0.0 | 0.00 | 0.00 | 0.00 | 34 | 1013.6 |
| 20260503204330 | 52 | 45 | 0.0 | 0.0 | 0.00 | 0.00 | 0.00 | 33 | 1013.6 |
| 20260503203328 | 50 | 90 | 0.0 | 0.0 | 0.00 | 0.00 | 0.00 | 33 | 1013.6 |
| 20260503201323 | 52 | 225 | 0.0 | 0.9 | 0.00 | 0.00 | 0.00 | 33 | 1013.5 |
| 20260503200321 | 52 | 0 | 0.0 | 0.0 | 0.00 | 0.00 | 0.00 | 33 | 1013.5 |
| 20260503195318 | 50 | 45 | 0.0 | 0.9 | 0.00 | 0.00 | 0.00 | 33 | 1013.3 |
| 20260503193314 | 52 | 0 | 0.0 | 0.9 | 0.00 | 0.00 | 0.00 | 32 | 1013.1 |